Tracking 31027 objects as of 19-Jul-2025
HD Live streaming from Space Station
objects crossing your sky now

USA 167

Track USA 167 now!
USA 167 is classified as:


NORAD ID: 27691
Int'l Code: 2003-008A
Perigee: 35,787.5 km
Apogee: 35,800.5 km
Inclination: 10.3 °
Period: 1,436.1 minutes
Semi major axis: 42164 km
RCS: Unknown
Launch date: March 11, 2003
Source: United States (US)
Launch site: AIR FORCE EASTERN TEST RANGE (AFETR)

Super High Frequency (SHF) for U.S. government and military; sophisticated survivability enhancement; worldwide, longhaul coverage; X-band.
Your satellite tracking list
Your tracking list is empty




NASA's NSSDC Master Catalog

Two Line Element Set (TLE):
1 27691U 03008A   25199.17568432  .00000004  00000-0  00000-0 0  9992
2 27691  10.2926  46.3125 0001542 295.8551 255.6652  1.00270895  3427
Source of the keplerian elements: McCants